User: anonymous   Login
Location: Oshawa
(43.9000°N, 78.8670°W)
Time: 07:08:31
(UTC-04:00)
Language:

Altair - Orbit

View from above orbital plane
View from above orbital plane
View from above satellite
View from above satellite

Ground track
Ground track

The orbit data is extracted from the following two-line orbital elements,

1 00050U 60009B   16127.02918874 -.00000117  00000-0 -29426-3 0  9993
2 00050  47.2296 107.3389 0113162 165.4661 194.9424 12.20095507487116
Epoch (UTC): 06 May 2016 00:42:01
Eccentricity: 0.0113162
inclination: 47.2296°
perigee height: 1502 km
apogee height: 1682 km
right ascension of ascending node: 107.3389°
argument of perigee: 165.4661°
revolutions per day: 12.20095507
mean anomaly at epoch: 194.9424°
orbit number at epoch: 48711

The dashed part of the orbit path shows where the satellite is in the earth's shadow,  

DLR